When you browse on this site, cookies collect data to enhance your experience and personalize the content and advertising you see.
Visit our Privacy Policy to learn more. By continuing to use the site, you agree to this use of cookies and data.
  • In United Kingdom
  • List of Countries
  • For 7 days
  • Water Temperature
  • Weather Map
  • Weather Widgets
  • user-avatar
    Login

    Hourly Weather Santa Fe

    Today, 18 November, Monday

    Time Temperature Precipitation Wind Pressure Humidity
    00:00 +4°C° 0 mm 2 mps 584 mmHg 43%
    01:00 +4°C° 0 mm 2 mps 584 mmHg 45%
    02:00 +3°C° 0 mm 2 mps 584 mmHg 46%
    03:00 +3°C° 0 mm 2 mps 584 mmHg 47%
    04:00 +3°C° 0 mm 2 mps 583 mmHg 48%
    05:00 +1°C° 0 mm 3 mps 583 mmHg 50%
    06:00 +3°C° 0 mm 3 mps 584 mmHg 47%
    07:00 +4°C° 0 mm 3 mps 585 mmHg 44%
    08:00 +5°C° 0 mm 3 mps 586 mmHg 42%
    09:00 +8°C° 0 mm 3 mps 587 mmHg 37%
    10:00 +11°C° 0 mm 4 mps 588 mmHg 32%
    11:00 +13°C° 0 mm 4 mps 588 mmHg 27%
    12:00 +14°C° 0 mm 4 mps 588 mmHg 26%
    13:00 +15°C° 0 mm 4 mps 588 mmHg 25%
    14:00 +15°C° 0 mm 4 mps 587 mmHg 24%
    15:00 +13°C° 0 mm 3 mps 586 mmHg 29%
    16:00 +11°C° 0 mm 3 mps 585 mmHg 34%
    17:00 +9°C° 0 mm 2 mps 584 mmHg 39%
    18:00 +8°C° 0 mm 2 mps 584 mmHg 41%
    19:00 +8°C° 0 mm 1 mps 584 mmHg 42%
    20:00 +7°C° 0 mm 1 mps 584 mmHg 44%
    21:00 +6°C° 0 mm 1 mps 584 mmHg 46%
    22:00 +6°C° 0 mm 1 mps 583 mmHg 48%
    23:00 +5°C° 0 mm 1 mps 583 mmHg 50%

    Tomorrow, 19 November, Tuesday

    Time Temperature Precipitation Wind Pressure Humidity
    00:00 +5°C° 0 mm 1 mps 583 mmHg 52%
    01:00 +5°C° 0 mm 1 mps 583 mmHg 54%
    02:00 +4°C° 0 mm 1 mps 582 mmHg 56%
    03:00 +4°C° 0 mm 1 mps 582 mmHg 55%
    04:00 +4°C° 0 mm 1 mps 582 mmHg 55%
    05:00 +3°C° 0 mm 2 mps 582 mmHg 54%
    06:00 +5°C° 0 mm 2 mps 582 mmHg 50%
    07:00 +6°C° 0 mm 2 mps 583 mmHg 45%
    08:00 +7°C° 0 mm 2 mps 583 mmHg 40%
    09:00 +9°C° 0 mm 3 mps 584 mmHg 36%
    10:00 +11°C° 0 mm 3 mps 584 mmHg 31%
    11:00 +13°C° 0 mm 3 mps 585 mmHg 27%
    12:00 +14°C° 0 mm 4 mps 584 mmHg 26%
    13:00 +15°C° 0 mm 4 mps 584 mmHg 25%
    14:00 +15°C° 0 mm 5 mps 584 mmHg 24%
    15:00 +13°C° 0 mm 4 mps 583 mmHg 27%
    16:00 +12°C° 0 mm 3 mps 582 mmHg 29%
    17:00 +10°C° 0 mm 3 mps 581 mmHg 32%
    18:00 +9°C° 0 mm 2 mps 581 mmHg 38%
    19:00 +8°C° 0 mm 2 mps 581 mmHg 45%
    20:00 +9°C° 0 mm 1 mps 581 mmHg 51%
    21:00 +9°C° 0 mm 1 mps 581 mmHg 53%
    22:00 +9°C° 0 mm 1 mps 581 mmHg 55%
    23:00 +8°C° 0 mm 2 mps 581 mmHg 57%

    Day after tomorrow, 20 November, Wednesday

    Time Temperature Precipitation Wind Pressure Humidity
    00:00 +7°C° 0 mm 2 mps 580 mmHg 62%
    01:00 +8°C° 0 mm 1 mps 580 mmHg 66%
    02:00 +7°C° 0 mm 1 mps 579 mmHg 71%
    03:00 +7°C° 0.1 mm 1 mps 579 mmHg 75%
    04:00 +6°C° 0.1 mm 2 mps 578 mmHg 79%
    05:00 +6°C° 0.1 mm 2 mps 578 mmHg 83%
    06:00 +6°C° 2 mm 2 mps 578 mmHg 85%
    07:00 +6°C° 2 mm 2 mps 578 mmHg 86%
    08:00 +6°C° 2 mm 2 mps 578 mmHg 88%
    09:00 +6°C° 0.2 mm 4 mps 578 mmHg 82%
    10:00 +6°C° 0.2 mm 5 mps 578 mmHg 75%
    11:00 +7°C° 0.2 mm 6 mps 578 mmHg 69%
    12:00 +5°C° 1.4 mm 6 mps 578 mmHg 72%
    13:00 +6°C° 1.4 mm 5 mps 577 mmHg 75%
    14:00 +5°C° 1.4 mm 4 mps 577 mmHg 78%
    15:00 +5°C° 0 mm 3 mps 577 mmHg 78%
    16:00 +5°C° 0 mm 3 mps 577 mmHg 78%
    17:00 +6°C° 0 mm 2 mps 578 mmHg 77%
    18:00 +6°C° 0 mm 2 mps 578 mmHg 78%
    19:00 +6°C° 0 mm 2 mps 578 mmHg 79%
    20:00 +6°C° 0 mm 2 mps 578 mmHg 79%
    21:00 +5°C° 0 mm 2 mps 578 mmHg 81%
    22:00 +4°C° 0 mm 3 mps 578 mmHg 82%
    23:00 +3°C° 0 mm 4 mps 579 mmHg 83%

    21 November, Thursday

    Time Temperature Precipitation Wind Pressure Humidity
    00:00 +3°C° 0.1 mm 4 mps 578 mmHg 84%
    01:00 +3°C° 0.1 mm 4 mps 578 mmHg 85%
    02:00 +3°C° 0.1 mm 4 mps 578 mmHg 86%
    03:00 +1°C° 0.4 mm 4 mps 578 mmHg 88%
    04:00 +1°C° 0.4 mm 4 mps 578 mmHg 90%
    05:00 +1°C° 0.4 mm 3 mps 578 mmHg 92%
    06:00 +1°C° 0.2 mm 3 mps 579 mmHg 90%
    07:00 +2°C° 0.2 mm 2 mps 579 mmHg 88%
    08:00 +2°C° 0.2 mm 2 mps 580 mmHg 85%
    09:00 +3°C° 0.1 mm 2 mps 580 mmHg 77%
    10:00 +4°C° 0.1 mm 2 mps 580 mmHg 69%
    11:00 +5°C° 0.1 mm 2 mps 581 mmHg 60%
    12:00 +4°C° 0.1 mm 3 mps 580 mmHg 58%
    13:00 +5°C° 0.1 mm 4 mps 580 mmHg 56%
    14:00 +5°C° 0.1 mm 4 mps 580 mmHg 54%
    15:00 +4°C° 0.2 mm 4 mps 580 mmHg 60%
    16:00 +3°C° 0.2 mm 3 mps 580 mmHg 66%
    17:00 +1°C° 0.2 mm 3 mps 579 mmHg 72%
    18:00 +2°C° 0 mm 2 mps 580 mmHg 74%
    19:00 +2°C° 0 mm 1 mps 580 mmHg 77%
    20:00 0°C° 0 mm 0 mps 580 mmHg 79%
    21:00 +1°C° 0 mm 1 mps 580 mmHg 79%
    22:00 +1°C° 0 mm 1 mps 581 mmHg 80%
    23:00 0°C° 0 mm 1 mps 581 mmHg 81%

    22 November, Friday

    Time Temperature Precipitation Wind Pressure Humidity
    00:00 0°C° 0 mm 1 mps 582 mmHg 82%
    01:00 0°C° 0 mm 1 mps 582 mmHg 83%
    02:00 0°C° 0 mm 1 mps 582 mmHg 85%
    03:00 0°C° 0 mm 1 mps 582 mmHg 86%
    04:00 0°C° 0 mm 1 mps 583 mmHg 87%
    05:00 -1°C° 0 mm 1 mps 583 mmHg 88%
    06:00 0°C° 0 mm 1 mps 584 mmHg 85%
    07:00 -1°C° 0 mm 2 mps 585 mmHg 82%
    08:00 -1°C° 0 mm 2 mps 585 mmHg 79%
    09:00 +1°C° 0 mm 3 mps 586 mmHg 72%
    10:00 +2°C° 0 mm 3 mps 586 mmHg 64%
    11:00 +3°C° 0 mm 4 mps 587 mmHg 57%
    12:00 +4°C° 0 mm 4 mps 586 mmHg 54%
    13:00 +5°C° 0 mm 4 mps 586 mmHg 50%
    14:00 +5°C° 0 mm 4 mps 586 mmHg 47%
    15:00 +4°C° 0 mm 4 mps 586 mmHg 53%
    16:00 +1°C° 0 mm 4 mps 585 mmHg 59%
    17:00 +1°C° 0 mm 3 mps 585 mmHg 65%
    18:00 0°C° 0 mm 3 mps 585 mmHg 65%
    19:00 -1°C° 0 mm 3 mps 585 mmHg 65%
    20:00 -1°C° 0 mm 2 mps 586 mmHg 64%
    21:00 -2°C° 0 mm 2 mps 586 mmHg 63%
    22:00 -2°C° 0 mm 3 mps 586 mmHg 61%
    23:00 -2°C° 0 mm 3 mps 586 mmHg 60%

    23 November, Saturday

    Time Temperature Precipitation Wind Pressure Humidity
    00:00 -2°C° 0 mm 3 mps 585 mmHg 59%
    01:00 -2°C° 0 mm 3 mps 585 mmHg 59%
    02:00 -3°C° 0 mm 2 mps 585 mmHg 58%
    03:00 -3°C° 0 mm 2 mps 585 mmHg 59%
    04:00 -3°C° 0 mm 2 mps 585 mmHg 59%
    05:00 -3°C° 0 mm 2 mps 585 mmHg 60%
    06:00 -2°C° 0 mm 2 mps 586 mmHg 57%
    07:00 -1°C° 0 mm 2 mps 586 mmHg 55%
    08:00 +1°C° 0 mm 2 mps 587 mmHg 53%
    09:00 +3°C° 0 mm 2 mps 587 mmHg 48%
    10:00 +5°C° 0 mm 2 mps 588 mmHg 43%
    11:00 +7°C° 0 mm 2 mps 588 mmHg 37%
    12:00 +7°C° 0 mm 2 mps 588 mmHg 36%
    13:00 +8°C° 0 mm 2 mps 587 mmHg 36%
    14:00 +9°C° 0 mm 2 mps 587 mmHg 35%
    15:00 +7°C° 0 mm 2 mps 586 mmHg 41%
    16:00 +4°C° 0 mm 2 mps 585 mmHg 47%
    17:00 +3°C° 0 mm 1 mps 584 mmHg 54%
    18:00 +3°C° 0 mm 1 mps 584 mmHg 55%
    19:00 +2°C° 0 mm 1 mps 584 mmHg 56%
    20:00 +2°C° 0 mm 1 mps 584 mmHg 57%
    21:00 +2°C° 0 mm 1 mps 584 mmHg 55%
    22:00 +2°C° 0 mm 1 mps 584 mmHg 53%
    23:00 +2°C° 0 mm 1 mps 584 mmHg 52%
    Show more